Le nostre stazioni meteo in Italia

Pubblicità
Il mio iltempo24.it
Cervia, Italia (16148): Temperatura & dewpoint: 19.05.2019 08:00:00 - 25.05.2019 08:00:00 (CEST)Cervia, Italia (16148): velocità del vento: 19.05.2019 08:00:00 - 25.05.2019 08:00:00 (CEST)Cervia, Italia (16148): direzione del vento: 19.05.2019 08:00:00 - 25.05.2019 08:00:00 (CEST)Cervia, Italia (16148): reduced air pressure: 19.05.2019 08:00:00 - 25.05.2019 08:00:00 (CEST)Cervia, Italia (16148): visibility: 19.05.2019 08:00:00 - 25.05.2019 08:00:00 (CEST)Cervia, Italia (16148): ore di luce: 19.05.2019 08:00:00 - 25.05.2019 08:00:00 (CEST)
Data & Tempo tt [°C] td [°C] ff [km/h] ff [kn] dd ppp [hPa] vv [km] sd [min]
25.05.2019 08:00:00 - - - - - - - -
25.05.2019 07:00:00 14,0 12,0 9 5 OSO - 10 -
25.05.2019 06:00:00 13,0 12,0 5 3 SSO - 10 -
25.05.2019 05:00:00 13,2 12,3 4 2 SSO 1013,1 20 -
25.05.2019 04:00:00 14,0 13,0 8 4 SSO - 10 -
25.05.2019 03:00:00 14,0 13,0 5 3 S - 10 -
25.05.2019 02:00:00 15,0 14,2 4 2 SO 1013,1 20 -
25.05.2019 01:00:00 15,0 14,0 5 3 OSO - 10 -
25.05.2019 00:00:00 16,0 15,0 8 4 SO - 10 -
24.05.2019 23:00:00 16,4 14,8 4 2 SSE 1012,5 20 -
24.05.2019 22:00:00 17,0 15,0 4 2 S - 10 -
24.05.2019 21:00:00 19,0 15,0 11 6 ESE - 10 -
24.05.2019 20:00:00 20,0 15,7 11 6 ESE 1011,7 16 48
24.05.2019 19:00:00 21,0 17,0 15 8 E - 10 -
24.05.2019 18:00:00 22,0 16,0 13 7 E - 10 -
24.05.2019 17:00:00 22,8 16,6 13 7 E 1012,3 16 60
24.05.2019 16:00:00 22,0 16,0 15 8 E - 10 -
24.05.2019 15:00:00 22,0 16,0 15 8 ENE - 10 -
24.05.2019 14:00:00 22,0 16,5 15 8 ENE 1013,2 16 60
24.05.2019 13:00:00 22,0 16,0 11 6 ENE - 10 -
24.05.2019 12:00:00 22,0 17,0 8 4 N - 10 -
24.05.2019 11:00:00 20,8 14,7 5 3 N 1014,1 16 60
24.05.2019 10:00:00 20,0 14,0 2 1 ONO - 10 -
24.05.2019 09:00:00 18,0 15,0 2 1 - - 10 -
24.05.2019 08:00:00 15,0 13,0 2 1 ONO 1014,3 20 60
24.05.2019 07:00:00 13,0 12,0 4 2 NE - 10 -
24.05.2019 06:00:00 12,0 11,0 2 1 ONO - 10 -
24.05.2019 05:00:00 12,4 11,5 2 1 NO 1014,3 20 -
24.05.2019 04:00:00 13,0 12,0 4 2 OSO - 10 -
24.05.2019 03:00:00 14,0 13,0 8 4 SO - 10 -
24.05.2019 02:00:00 14,0 13,1 8 4 SO 1014,3 20 -
24.05.2019 01:00:00 15,0 14,0 2 1 S - 10 -
24.05.2019 00:00:00 16,0 15,0 4 2 S - 10 -
23.05.2019 23:00:00 16,0 14,9 5 3 S 1014,3 20 -
23.05.2019 22:00:00 17,0 15,0 9 5 SE - 10 -
23.05.2019 21:00:00 18,0 16,0 11 6 ESE - 10 -
23.05.2019 20:00:00 19,3 15,2 11 6 E 1014,1 20 60
23.05.2019 19:00:00 20,0 16,0 9 5 ENE - 10 -
23.05.2019 18:00:00 20,0 14,0 11 6 E - 10 -
23.05.2019 17:00:00 21,0 14,2 8 4 SSE 1015,1 20 60
23.05.2019 16:00:00 22,0 15,0 13 7 E - 10 -
23.05.2019 15:00:00 21,0 15,0 13 7 ENE - 10 -
23.05.2019 14:00:00 21,3 14,7 11 6 ENE 1016,3 20 60
23.05.2019 13:00:00 21,0 16,0 13 7 ENE - 10 -
23.05.2019 12:00:00 20,0 15,0 8 4 N - 10 -
23.05.2019 11:00:00 19,0 15,5 9 5 NNO 1016,4 20 60
23.05.2019 10:00:00 18,0 15,0 15 8 O - 10 -
23.05.2019 09:00:00 17,0 15,0 11 6 O - 10 -
23.05.2019 08:00:00 15,2 13,7 13 7 O 1016,3 15 0
23.05.2019 07:00:00 14,0 13,0 9 5 OSO - 10 -
23.05.2019 06:00:00 13,0 12,0 4 2 NNO - 10 -
23.05.2019 05:00:00 13,0 12,2 2 1 ONO 1015,4 20 -
23.05.2019 04:00:00 12,0 12,0 5 3 O - 10 -
23.05.2019 03:00:00 14,0 14,0 5 3 O - 10 -
23.05.2019 02:00:00 14,0 14,0 5 3 OSO 1015,4 20 -
23.05.2019 01:00:00 15,0 15,0 4 2 OSO - 10 -
23.05.2019 00:00:00 15,0 15,0 4 2 S - 10 -
22.05.2019 23:00:00 15,6 15,3 4 2 NNO 1015,2 20 -
22.05.2019 22:00:00 17,0 15,0 8 4 SE - 10 -
22.05.2019 21:00:00 18,0 14,0 8 4 E - 10 -
22.05.2019 20:00:00 19,0 13,8 9 5 ESE 1014,1 20 0
22.05.2019 19:00:00 20,0 15,0 13 7 E - 10 -
22.05.2019 18:00:00 21,0 15,0 16 9 E - 10 -
22.05.2019 17:00:00 20,0 15,4 16 9 E 1014,1 20 60
22.05.2019 16:00:00 19,0 16,0 15 8 ESE - 10 -
22.05.2019 15:00:00 20,0 16,0 11 6 ESE - 10 -
22.05.2019 14:00:00 21,0 14,9 15 8 ENE 1014,8 20 30
22.05.2019 13:00:00 21,0 14,0 11 6 NO - 10 -
22.05.2019 12:00:00 21,0 15,0 15 8 NNO - 10 -
22.05.2019 11:00:00 20,8 14,5 15 8 NO 1014,7 20 60
22.05.2019 10:00:00 20,0 13,0 13 7 ONO - 10 -
22.05.2019 09:00:00 19,0 13,0 15 8 O - 10 -
22.05.2019 08:00:00 16,0 12,9 8 4 SSO 1014,0 20 60
22.05.2019 07:00:00 13,0 12,0 5 3 SSO - 10 -
22.05.2019 06:00:00 12,0 11,0 9 5 SSO - 10 -
22.05.2019 05:00:00 12,0 11,1 8 4 SO 1013,6 20 -
22.05.2019 04:00:00 13,0 11,0 8 4 SSO - 10 -
22.05.2019 03:00:00 15,0 11,0 11 6 SSO - 10 -
22.05.2019 02:00:00 15,4 9,5 13 7 SO 1013,3 20 -
22.05.2019 01:00:00 16,0 12,0 13 7 OSO - 10 -
22.05.2019 00:00:00 17,0 12,0 18 10 OSO - 10 -
21.05.2019 23:00:00 16,9 11,8 16 9 OSO 1012,5 20 -
21.05.2019 22:00:00 17,0 11,0 11 6 SSO - 10 -
21.05.2019 21:00:00 18,0 11,0 13 7 OSO - 10 -
21.05.2019 20:00:00 21,0 11,4 15 8 OSO 1010,3 20 30
21.05.2019 19:00:00 22,0 12,0 21 11 SO - 10 -
21.05.2019 18:00:00 22,0 12,0 26 14 OSO - 10 -
21.05.2019 17:00:00 21,6 13,5 22 12 OSO 1010,3 20 36
21.05.2019 16:00:00 22,0 13,0 24 13 OSO - 10 -
21.05.2019 15:00:00 22,0 14,0 21 11 OSO - 10 -
21.05.2019 14:00:00 21,6 14,0 26 14 OSO 1009,7 20 30
21.05.2019 13:00:00 21,0 15,0 24 13 O - 10 -
21.05.2019 12:00:00 21,0 15,0 22 12 OSO - 10 -
21.05.2019 11:00:00 20,0 14,4 5 3 O 1009,0 20 42
21.05.2019 10:00:00 18,0 15,0 2 1 NO - 10 -
21.05.2019 09:00:00 16,0 14,0 5 3 SE - 10 -
21.05.2019 08:00:00 14,8 13,2 4 2 SE 1008,3 16 0
21.05.2019 07:00:00 14,0 13,0 8 4 ESE - 10 -
21.05.2019 06:00:00 14,0 13,0 4 2 ESE - 10 -
21.05.2019 05:00:00 13,2 12,4 9 5 OSO 1007,9 16 -
21.05.2019 04:00:00 13,0 12,0 4 2 SO - 10 -
21.05.2019 03:00:00 13,0 11,0 11 6 S - 10 -
21.05.2019 02:00:00 13,0 10,7 11 6 S 1008,4 16 -
21.05.2019 01:00:00 13,0 11,0 9 5 SSO - 10 -
21.05.2019 00:00:00 13,0 11,0 4 2 S - 10 -
20.05.2019 23:00:00 13,0 10,9 2 1 N 1008,1 16 -
20.05.2019 22:00:00 14,0 11,0 4 2 S - 10 -
20.05.2019 21:00:00 15,0 11,0 11 6 O - 10 -
20.05.2019 20:00:00 18,0 11,6 11 6 SSO 1006,6 20 24
20.05.2019 19:00:00 19,0 13,0 13 7 S - 10 -
20.05.2019 18:00:00 19,0 13,0 9 5 SE - 10 -
20.05.2019 17:00:00 18,0 14,5 13 7 SE 1006,5 15 12
20.05.2019 16:00:00 18,0 12,0 16 9 ESE - 10 -
20.05.2019 15:00:00 18,0 13,0 13 7 E - 10 -
20.05.2019 14:00:00 19,8 12,3 11 6 ENE 1006,3 20 18
20.05.2019 13:00:00 20,0 9,0 5 3 SSO - 10 -
20.05.2019 12:00:00 19,0 10,0 16 9 OSO - 10 -
20.05.2019 11:00:00 18,0 10,9 18 10 OSO 1006,2 20 36
20.05.2019 10:00:00 17,0 11,0 8 4 SSO - 10 -
20.05.2019 09:00:00 15,0 12,0 8 4 SSO - 10 -
20.05.2019 08:00:00 13,4 11,5 5 3 SSO 1005,0 15 0
20.05.2019 07:00:00 12,0 10,0 8 4 SSO - 10 -
20.05.2019 06:00:00 12,0 11,0 9 5 OSO - 10 -
20.05.2019 05:00:00 12,3 10,7 8 4 SO 1004,7 10 -
20.05.2019 04:00:00 12,0 11,0 8 4 SO - 10 -
20.05.2019 03:00:00 13,0 11,0 5 3 SSO - 10 -
20.05.2019 02:00:00 13,0 11,6 5 3 O 1005,0 10 -
20.05.2019 01:00:00 13,0 12,0 8 4 SO - 10 -
20.05.2019 00:00:00 14,0 12,0 5 3 SSO - 10 -
19.05.2019 23:00:00 14,0 12,7 5 3 SSO 1004,7 10 -
19.05.2019 22:00:00 14,0 13,0 5 3 SSO - 10 -
19.05.2019 21:00:00 14,0 13,0 5 3 SSO - 10 -
19.05.2019 20:00:00 14,8 13,7 8 4 SSO 1004,5 10 0
19.05.2019 19:00:00 15,0 13,0 9 5 SO - 10 -
19.05.2019 18:00:00 15,0 13,0 2 1 - - 10 -
19.05.2019 17:00:00 13,8 12,2 8 4 NNO 1004,5 10 0
19.05.2019 16:00:00 14,0 12,0 11 6 ONO - 7 -
19.05.2019 15:00:00 16,0 14,0 9 5 NE - 10 -
19.05.2019 14:00:00 17,0 14,7 13 7 NE 1003,7 10 0
19.05.2019 13:00:00 16,0 14,0 9 5 ENE - 10 -
19.05.2019 12:00:00 17,0 14,0 4 2 - - 10 -
19.05.2019 11:00:00 16,0 14,0 4 2 - 1004,2 10 0
19.05.2019 10:00:00 15,0 13,0 4 2 - - 10 -
19.05.2019 09:00:00 14,0 12,0 8 4 NO - 10 -
19.05.2019 08:00:00 14,0 11,9 9 5 O 1004,2 6 18

tt = Temperatura
td = dewpoint
ff = velocità del vento
dd = direzione del vento
ppp = reduced air pressure
vv = visibility
sd = ore di luce

Stazioni seguenti

WeatherPro
AMSI
MeteoEarth